Location: Newark
(13.6797°N, 8.5297°E)
Time: 20:51:10
(UTC+00:00)

SR - Pass Details

Date: 27 January 2020
Orbit: 575 x 880 km, 66.7° (Epoch: 22 February)

Event Time Altitude Azimuth Distance (km) Brightness Sun altitude
Rises 07:59:18 0° 320° (NW) 3,158 ? 27.1°
Reaches altitude 10° 08:02:08 10° 306° (NW) 2,177 ? 27.7°
Maximum altitude 08:06:01 24° 254° (WSW) 1,397 ? 28.5°
Drops below altitude 10° 08:09:40 10° 201° (SSW) 2,026 ? 29.3°
Sets 08:12:14 0° 186° (S) 2,888 ? 29.8°
